sat.trackr.live / text

‹ back to catalog

JILIN-1 KUANFU 01

NORAD 45016 · 2020-003A

PAYLOAD ACTIVE UNKNOWN

§ Identity

Operator
Country
PRC
Launch date
2020-01-15
Launch site
TAISC
Launch vehicle
Mass (kg)
RCS (m²)

External: N2YO · Heavens-Above · Gunter

§ Orbital elements

Epoch: 2026-09-20T04:28:02.936640Z

Period
95.29 min
Inclination
97.4948°
Eccentricity
0.0009057
Mean motion
15.11166062 rev/d
Perigee alt
526.4 km
Apogee alt
538.9 km
Semi-major
6,910.8 km
B*
1.0203e-4
RAAN
335.2731°
Arg perigee
344.8775°
Mean anomaly
15.2182°
Rev number
36,967

§ Raw data

JILIN-1 KUANFU 011 45016U 20003A   26263.18614510  .00001649  00000+0  10203-3 0  99942 45016  97.4948 335.2731 0009057 344.8775  15.2182 15.11166062369671

JSON: /api/v1/satellites/45016 · /tle

For live sub-satellite position, see the globe view (requires WebGL).

§ Visibility from observer

Set your observer location to see the next 7 days of passes ≥ 10°. The values pass through the URL so the page stays shareable.

No JS? Fill the form by hand. The geolocation button needs JavaScript.

§ Radio — SatNOGS DB

ModeDescriptionDownlinkUplink
BPSK S-band telemetry 2.280 GHz

1 transmitter · refreshed weekly from db.satnogs.org